Strona główna
METAR-TAF:

METAR-TAF

Lotnisko :

Hettinger Municipal Airport

Hettinger, Dakota Północna, Stany Zjednoczone

Szerokość geograficzna: 46-00-38N, Długość geograficzna: 102-38-59W, wysokość: 824 m

Aktualna obserwacja pogody

Raport powstał 36 minut temu, godzina 23:53 UTC
Wiatr 13 kt od północno-północny wschód
Temperatura 3°C
Wilgotność 52%
Ciśnienie 1020 hPa
Widzialność: 16.1 km
Zachmurzenie całkowite na wysokości 7000 ft

METAR: KHEI 182353Z AUTO 02013KT 10SM OVC070 03/M06 A3011 RMK AO2 SLP218 T00331056 10111 20033 53005

czas: 18:29 (00:29 UTC)


TAF: brakujący

Obserwacja i prognoza pogody dla ponad 4000 lotnisk (raport METAR i TAF).

Dostępne stacje oznaczono żółtymi i czerwonymi punktami na mapie.

Najedź kursorem aby zobaczyć nazwę stacji.

Kliknij aby zobaczyć obserwacje i prognozy pogody.

Aby zmienić mapę: kliknij na zielony przycisk z czarnym krzyżykiem, aby powiększyć; na zielony przycisk z myślnikiem, aby pomniejszyć; na zielone strzałki, aby przejść do map sąsiednich.


METAR-TAF: